#timestamp,LO_Frequency,Hit,StdDev 
1548633615.1,286046998.6,N
1548633635.8,286046998.8,N
1548633655.7,286046998.1,N
1548633675.5,286046998.6,N
1548633695.4,286046998.2,N
1548633715.2,286047000.4,N
1548633735.0,286047002.6,N
1548633735.9,286047002.6,N
1548633755.8,286047002.8,N
1548633775.6,286047000.3,N
1548633795.5,286046998.3,N
1548633815.3,286046998.0,N
1548633835.1,286046996.6,N
1548633855.9,286046999.0,N
1548633875.7,286047000.4,N
1548633895.6,286046999.8,N
1548633915.4,286047002.7,N
1548633935.2,286047000.4,N
1548633955.1,286047002.5,N
1548633956.0,286047002.5,N
1548633975.8,286046999.9,N
1548633995.7,286047000.9,N
1548634015.5,286047000.1,N
1548634035.3,286047001.2,N
1548634055.2,286047001.0,N
1548634075.0,286046999.4,N
1548634075.9,286046999.4,N
1548634095.7,286046996.9,N
1548634115.6,286046995.9,N
1548634135.4,286046994.5,N
1548634155.3,286046996.0,N
1548634175.1,286046997.7,N
1548634176.0,286046997.7,N
1548634195.8,286046997.2,N
1548634215.7,286046995.3,N
1548634235.5,286046993.7,N
1548634255.4,286046993.0,N
1548634275.2,286046992.4,N
1548634295.0,286046994.5,N
1548634295.9,286046994.5,N
1548634315.8,286046991.9,N
1548634335.6,286046994.3,N
1548634355.4,286046994.6,N
1548634375.3,286046994.3,N
1548634395.1,286046993.1,N
1548634415.9,286046990.1,Y
1548634435.7,286046996.3,P
1548634455.5,286046995.5,P
1548634475.4,286046997.5,P
1548634495.2,286046997.9,N
1548634515.0,286046997.9,N
1548634515.9,286046997.9,N
1548634535.8,286046995.6,Y
1548634555.6,286046996.5,P
1548634575.5,286046999.6,N
1548634595.3,286046998.3,N
1548634615.1,286046998.2,N
1548634635.9,286046998.9,N
1548634655.7,286046998.3,N
1548634675.6,286046999.4,N
1548634695.4,286046996.7,Y
1548634715.2,286047000.4,P
1548634735.1,286047000.4,N
1548634736.0,286047000.4,N
1548634755.8,286047000.2,N
1548634775.7,286046999.7,N
1548634795.5,286047002.4,Y
1548634815.3,286047002.1,P
1548634835.2,286047000.2,N
1548634855.0,286047002.3,N
1548634855.9,286047002.3,N
1548634875.8,286047001.7,N
1548634895.6,286047003.8,Y
1548634915.4,286047002.6,P
1548634935.3,286047002.6,P
1548634955.1,286047002.0,P
1548634975.8,286047001.4,N
1548634995.7,286047003.8,Y
1548635015.5,286047002.8,P
1548635035.4,286047004.4,P
1548635055.2,286047001.4,N
1548635075.0,286047003.8,Y
1548635075.9,286047003.8,P
1548635095.8,286047000.2,N
1548635115.6,286047000.5,N
1548635135.5,286046999.3,N
1548635155.3,286046999.2,N
1548635175.1,286046999.6,N
1548635195.9,286046998.7,N
1548635215.7,286047000.9,N
1548635235.5,286047000.0,N
1548635255.4,286046998.2,N
1548635275.2,286046998.5,N
1548635295.1,286046996.9,N
1548635296.0,286046996.9,N
1548635315.8,286046997.0,N
1548635335.6,286046998.7,N
1548635355.5,286046998.6,N
1548635375.3,286046999.8,N
1548635395.1,286047000.7,N
1548635415.9,286047000.3,N
1548635435.7,286047000.2,N
1548635455.6,286047000.3,N
1548635475.4,286047001.2,N
1548635495.2,286047000.9,N
1548635515.1,286046998.5,N
1548635516.0,286046998.5,N
1548635535.8,286047000.9,N
1548635555.6,286046998.6,N
1548635575.5,286046998.6,N
1548635595.3,286046998.6,N
1548635615.2,286047000.3,N
1548635635.0,286047002.5,N
1548635635.9,286047002.5,N
1548635655.7,286047002.8,N
1548635675.6,286047001.6,N
1548635695.4,286047002.2,N
1548635715.3,286046999.9,N
1548635735.1,286047002.1,N
1548635755.8,286047001.5,N
1548635775.7,286047001.8,N
1548635795.5,286047003.7,N
1548635815.4,286047004.1,N
1548635835.2,286047005.6,N
1548635855.0,286047006.0,N
1548635855.9,286047006.0,N
1548635875.8,286047003.0,N
1548635895.6,286047005.8,N
1548635915.4,286047005.5,N
1548635935.3,286047005.5,N
1548635955.1,286047004.0,N
1548635975.9,286047004.0,N
1548635995.7,286047002.5,N
1548636015.5,286047002.6,N
1548636035.4,286047001.0,N
1548636055.2,286046998.8,N
1548636075.0,286047001.2,N
1548636076.0,286047001.2,N
1548636095.8,286047000.0,N
1548636115.6,286047002.2,N
1548636135.5,286047002.8,N
1548636155.3,286047001.7,N
1548636175.1,286047003.9,N
1548636195.9,286047002.6,N
1548636215.7,286047002.0,N
1548636235.6,286047002.4,N
1548636255.4,286047001.5,N
1548636275.2,286047002.4,N
1548636295.1,286047002.6,N
1548636296.0,286047002.6,N
1548636315.8,286047001.7,N
1548636335.7,286047003.0,N
1548636355.5,286047003.2,N
1548636375.3,286047004.1,N
1548636395.2,286047003.8,N
1548636415.0,286047001.3,N
1548636415.9,286047001.3,N
1548636435.8,286047003.7,N
1548636455.6,286047001.7,N
1548636475.4,286047004.3,Y
1548636495.3,286047002.3,P
1548636515.1,286047000.1,N
1548636535.9,286047002.2,N
1548636555.7,286047002.7,N
1548636575.5,286047004.0,Y
1548636595.4,286046999.9,P
1548636615.2,286047000.6,N
1548636635.1,286047002.1,N
1548636636.0,286047002.1,N
1548636655.8,286047002.3,N
1548636675.6,286047002.7,N
1548636695.5,286047000.3,N
1548636715.3,286046999.7,N
1548636735.1,286047000.2,N
1548636755.9,286047000.8,N
1548636775.7,286047001.0,N
1548636795.6,286047000.8,N
1548636815.4,286047001.1,N
1548636835.2,286047000.1,N
1548636855.1,286047001.0,N
1548636856.0,286047001.0,N
1548636875.8,286047001.2,N
1548636895.7,286047001.1,N
1548636915.5,286047000.6,N
1548636935.3,286047000.7,N
1548636955.2,286046998.9,N
1548636975.0,286047001.2,N
1548636975.9,286047001.2,N
1548636995.8,286047000.5,N
1548637015.6,286046999.9,N
1548637035.4,286047002.6,Y
1548637055.3,286047002.2,P
1548637075.1,286047002.7,P
1548637095.9,286047002.4,P
1548637115.7,286047002.4,Y
1548637135.5,286046999.0,P
1548637155.4,286047001.2,N
1548637175.2,286046998.1,N
1548637195.1,286046998.8,N
1548637196.0,286046998.8,N
